Location: Newark
(10.3333°N, 37.7167°E)
Time: 01:13:18
(UTC+00:00)

LightSail 2 - Pass Details

Date: 04 February 2020
Orbit: 698 x 724 km, 24.0° (Epoch: 27 February)

Event Time Altitude Azimuth Distance (km) Brightness Sun altitude
Rises 16:25:16 0° 268° (W) 3,060 10.2 -12.9°
Reaches altitude 10° 16:28:18 10° 251° (WSW) 2,146 9.1 -13.6°
Maximum altitude 16:31:51 19° 206° (SSW) 1,630 7.5 -14.5°
Drops below altitude 10° 16:35:24 10° 161° (SSE) 2,156 7.6 -15.3°
Sets 16:38:29 0° 144° (SE) 3,079 8.2 -16.0°
